星链-5943 (STARLINK-5943 )

导读

STARLINK-5943是美国SpaceX公司星链星座的一颗低轨互联网通信卫星,于北京时间2023年3月24日发射入轨,部署于近地轨道。星链星座旨在构建全球覆盖的高速卫星互联网网络,可为偏远地区提供宽带接入,也应用于军事通信等场景,STARLINK-5943是星链大规模组网进程中的组成单元。

基本信息
目录编号:
56016
目录名称:
STARLINK-5943
国际标识:
2023-042AG
轨道中心:
EARTH
卫星名称:
星链-5943
卫星全名:
星链-5943 (STARLINK-5943 )
卫星状态:
在轨 (已飞行1268 天)
发射日期:
2023-03-24 UTC
国别 :
美国 (US)
星等 :
--
该卫星已列入 空间交会检测服务 Space Conjunction Data Service (SCDS) ,当前飞行风险评估等级: 无高风险
轨道信息
数据来源 国际轨道数据
星历时间: 2026-09-12T06:07:42+0800
17小时前
查看轨道信息
半长轴: 6861.194km
偏心率: 0.0001334
轨道倾角: 43.002°
近地点辐角 247.621°
升交点赤经 73.794°
平近点角 112.450°
近地点: 482.141km
远地点: 483.973km
周期: 94.267分钟
每日圈数: 15.275775
详细信息
固有亮度:
5
最大亮度:
2.5
卫星平台:
Starlink v1.5
覆盖范围:
全球
运营商:
太空探索技术公司
运营商所在国:
美国
制造商(研发单位):
太空探索技术公司
制造商所在国:
美国
使用方式:
暂无
卫星简介
星链(Starlink)计划是由太空探索技术公司(SpaceX)提出的一个巨型低轨卫星互联网星座项目,计划在2019年至2024年间在太空搭建由约1.2万颗卫星组成的“星链”网络,其中1584颗将部署在地球上空550千米处的近地轨道,并从2020年开始工作。该卫星仍在工作。
2D轨道图
3D轨道图
轨道高度分析图
轨道倾角分析图
轨道综合分析图
查看轨道综合分析图
与全量物体交会距离演化趋势
与全量物体交会风险概率演化趋势